CCM69PM LFKJ-LFML

Flight info

Callsign CCM69PM
Flight time 0h 42m
Altitude 22000
Route TINOT
Aircraft A320/M-SDE3FGHIRWY/LB1

Departure

Time 2026-04-28 18:57
Airport Ajaccio Napoléon Bonaparte airport (LFKJ)

Arrival

Time 2026-04-28 19:39
Airport Marseille Provence Airport (LFML)
Time Latitude Longitude Altitude Speed Heading
2026-04-28 18:17 41.92186 8.79718 26 ft 0 kts 344°
2026-04-28 18:48 41.92189 8.79719 26 ft 3 kts 359°
2026-04-28 18:49 41.92190 8.79719 26 ft 0 kts
2026-04-28 18:50 41.92190 8.79729 26 ft 1 kts 94°
2026-04-28 18:51 41.92188 8.79776 26 ft 6 kts 46°
2026-04-28 18:51 41.92225 8.79811 29 ft 9 kts 20°
2026-04-28 18:51 41.92283 8.79844 29 ft 11 kts 24°
2026-04-28 18:51 41.92367 8.79896 30 ft 14 kts 25°
2026-04-28 18:52 41.92465 8.79959 27 ft 17 kts 24°
2026-04-28 18:52 41.92577 8.80027 29 ft 19 kts 25°
2026-04-28 18:52 41.92704 8.80108 25 ft 21 kts 26°
2026-04-28 18:52 41.92827 8.80223 27 ft 22 kts 42°
2026-04-28 18:53 41.92934 8.80367 30 ft 16 kts 45°
2026-04-28 18:53 41.92967 8.80458 31 ft 4 kts 91°
2026-04-28 18:53 41.92967 8.80459 31 ft 0 kts 92°
2026-04-28 18:55 41.92966 8.80462 31 ft 3 kts 92°
2026-04-28 18:55 41.92938 8.80572 29 ft 8 kts 154°
2026-04-28 18:55 41.92895 8.80564 31 ft 5 kts 200°
2026-04-28 18:56 41.92884 8.80555 31 ft 0 kts 203°
2026-04-28 18:56 41.92864 8.80543 31 ft 24 kts 206°
2026-04-28 18:57 41.92450 8.80286 21 ft 102 kts 205°
2026-04-28 18:57 41.91622 8.79774 39 ft 155 kts 203°
2026-04-28 18:57 41.90664 8.79155 645 ft 155 kts 212°
2026-04-28 18:57 41.89985 8.78018 1240 ft 164 kts 241°
2026-04-28 18:58 41.89390 8.76581 1615 ft 188 kts 239°
2026-04-28 18:58 41.88701 8.74967 2035 ft 211 kts 239°
2026-04-28 18:58 41.87924 8.73165 2480 ft 235 kts 239°
2026-04-28 18:58 41.87071 8.71199 2685 ft 254 kts 238°
2026-04-28 18:59 41.86156 8.69101 3459 ft 265 kts 238°
2026-04-28 18:59 41.85219 8.66954 4442 ft 268 kts 238°
2026-04-28 18:59 41.84278 8.64797 5492 ft 268 kts 238°
2026-04-28 18:59 41.83370 8.62658 6514 ft 269 kts 242°
2026-04-28 19:00 41.82813 8.60254 7512 ft 268 kts 261°
2026-04-28 19:00 41.82812 8.57837 8881 ft 256 kts 275°
2026-04-28 19:00 41.83277 8.55428 9434 ft 278 kts 289°
2026-04-28 19:00 41.83983 8.52968 10161 ft 287 kts 289°
2026-04-28 19:01 41.84723 8.50399 10829 ft 291 kts 289°
2026-04-28 19:01 41.85434 8.47942 12116 ft 278 kts 289°
2026-04-28 19:01 41.86129 8.45524 13073 ft 273 kts 289°
2026-04-28 19:01 41.86801 8.43165 14058 ft 270 kts 289°
2026-04-28 19:02 41.87458 8.40855 14995 ft 260 kts 289°
2026-04-28 19:02 41.88091 8.38632 15909 ft 253 kts 289°
2026-04-28 19:02 41.88717 8.36423 16624 ft 253 kts 288°
2026-04-28 19:02 41.89343 8.34206 17307 ft 255 kts 288°
2026-04-28 19:03 41.89973 8.31967 17968 ft 258 kts 288°
2026-04-28 19:03 41.90624 8.29651 18265 ft 276 kts 288°
2026-04-28 19:03 41.91329 8.27139 18393 ft 299 kts 288°
2026-04-28 19:03 41.92086 8.24430 18513 ft 321 kts 288°
2026-04-28 19:04 41.92896 8.21535 18631 ft 341 kts 289°
2026-04-28 19:04 41.93756 8.18470 18757 ft 360 kts 289°
2026-04-28 19:04 41.94665 8.15239 18875 ft 378 kts 289°
2026-04-28 19:04 41.95618 8.11853 18996 ft 395 kts 289°
2026-04-28 19:05 41.96602 8.08345 19312 ft 405 kts 289°
2026-04-28 19:05 41.97601 8.04778 19787 ft 409 kts 289°
2026-04-28 19:05 41.98607 8.01181 20296 ft 412 kts 289°
2026-04-28 19:05 41.99606 7.97600 20790 ft 415 kts 289°
2026-04-28 19:06 42.00621 7.93949 21273 ft 418 kts 288°
2026-04-28 19:06 42.01311 7.91462 21597 ft 420 kts 288°
2026-04-28 19:06 42.02666 7.86557 21969 ft 423 kts 288°
2026-04-28 19:06 42.03700 7.82813 22020 ft 434 kts 288°
2026-04-28 19:07 42.04767 7.78943 22020 ft 445 kts 288°
2026-04-28 19:07 42.05851 7.75009 22019 ft 451 kts 288°
2026-04-28 19:07 42.06945 7.71044 22019 ft 453 kts 288°
2026-04-28 19:07 42.08042 7.67071 22019 ft 453 kts 288°
2026-04-28 19:08 42.09141 7.63086 22017 ft 453 kts 288°
2026-04-28 19:08 42.10236 7.59108 22024 ft 453 kts 288°
2026-04-28 19:08 42.11328 7.55127 22016 ft 453 kts 288°
2026-04-28 19:08 42.12420 7.51132 22017 ft 453 kts 288°
2026-04-28 19:09 42.13504 7.47147 22020 ft 453 kts 288°
2026-04-28 19:09 42.14585 7.43169 22020 ft 453 kts 288°
2026-04-28 19:09 42.15671 7.39178 22018 ft 453 kts 288°
2026-04-28 19:09 42.16752 7.35197 22018 ft 453 kts 288°
2026-04-28 19:10 42.17832 7.31212 22024 ft 453 kts 288°
2026-04-28 19:10 42.18902 7.27258 22025 ft 453 kts 288°
2026-04-28 19:10 42.19983 7.23263 22025 ft 453 kts 288°
2026-04-28 19:10 42.21061 7.19280 22023 ft 453 kts 288°
2026-04-28 19:11 42.22141 7.15304 22017 ft 451 kts 288°
2026-04-28 19:11 42.23213 7.11316 22017 ft 452 kts 287°
2026-04-28 19:11 42.24283 7.07313 22017 ft 452 kts 287°
2026-04-28 19:11 42.25352 7.03312 22022 ft 452 kts 287°
2026-04-28 19:12 42.26419 6.99317 22022 ft 452 kts 287°
2026-04-28 19:12 42.27487 6.95318 22022 ft 452 kts 287°
2026-04-28 19:12 42.28554 6.91323 22020 ft 452 kts 287°
2026-04-28 19:12 42.29622 6.87329 22021 ft 452 kts 287°
2026-04-28 19:13 42.30690 6.83329 22028 ft 452 kts 287°
2026-04-28 19:13 42.31739 6.79382 22026 ft 452 kts 287°
2026-04-28 19:13 42.32798 6.75383 22025 ft 452 kts 287°
2026-04-28 19:13 42.33857 6.71375 22028 ft 452 kts 287°
2026-04-28 19:14 42.34911 6.67375 22029 ft 452 kts 287°
2026-04-28 19:14 42.35968 6.63364 22029 ft 452 kts 287°
2026-04-28 19:14 42.37022 6.59361 22028 ft 452 kts 287°
2026-04-28 19:14 42.38077 6.55342 22027 ft 452 kts 287°
2026-04-28 19:15 42.39127 6.51336 22026 ft 452 kts 287°
2026-04-28 19:15 42.40180 6.47323 22028 ft 452 kts 287°
2026-04-28 19:15 42.41234 6.43306 22040 ft 452 kts 287°
2026-04-28 19:15 42.41927 6.40656 22041 ft 452 kts 287°
2026-04-28 19:16 42.43328 6.35284 22034 ft 452 kts 287°
2026-04-28 19:16 42.44372 6.31278 22041 ft 451 kts 287°
2026-04-28 19:16 42.45400 6.27323 22032 ft 451 kts 287°
2026-04-28 19:16 42.46437 6.23314 22030 ft 451 kts 287°
2026-04-28 19:17 42.47486 6.19248 22030 ft 451 kts 287°
2026-04-28 19:17 42.48524 6.15234 22029 ft 451 kts 287°
2026-04-28 19:17 42.49558 6.11230 22028 ft 451 kts 287°
2026-04-28 19:17 42.50577 6.07273 22026 ft 451 kts 287°
2026-04-28 19:18 42.51612 6.03255 22030 ft 450 kts 287°
2026-04-28 19:18 42.52645 5.99251 22030 ft 450 kts 287°
2026-04-28 19:18 42.53677 5.95245 22024 ft 450 kts 287°
2026-04-28 19:18 42.54706 5.91242 22024 ft 450 kts 287°
2026-04-28 19:19 42.55732 5.87229 22023 ft 450 kts 287°
2026-04-28 19:19 42.56755 5.83204 22021 ft 450 kts 287°
2026-04-28 19:19 42.57769 5.79197 22021 ft 450 kts 287°
2026-04-28 19:19 42.58783 5.75183 22020 ft 450 kts 287°
2026-04-28 19:20 42.59800 5.71168 22021 ft 450 kts 287°
2026-04-28 19:20 42.60817 5.67151 22027 ft 449 kts 287°
2026-04-28 19:20 42.61813 5.63237 22019 ft 427 kts 287°
2026-04-28 19:20 42.62765 5.59507 22023 ft 411 kts 287°
2026-04-28 19:21 42.63688 5.55865 22022 ft 401 kts 287°
2026-04-28 19:21 42.64570 5.52364 21967 ft 384 kts 286°
2026-04-28 19:21 42.65409 5.49016 21833 ft 362 kts 286°
2026-04-28 19:21 42.66193 5.45891 21698 ft 337 kts 286°
2026-04-28 19:22 42.66683 5.43935 21494 ft 325 kts 286°
2026-04-28 19:22 42.67163 5.42021 21147 ft 319 kts 286°
2026-04-28 19:22 42.68397 5.37364 20105 ft 313 kts 291°
2026-04-28 19:22 42.69055 5.35578 19670 ft 312 kts 297°
2026-04-28 19:23 42.70680 5.32365 18863 ft 311 kts 307°
2026-04-28 19:23 42.71662 5.30893 18459 ft 311 kts 312°
2026-04-28 19:23 42.73274 5.28944 17738 ft 311 kts 319°
2026-04-28 19:23 42.75103 5.27241 16537 ft 326 kts 327°
2026-04-28 19:24 42.77108 5.25642 15360 ft 346 kts 327°
2026-04-28 19:24 42.79250 5.23933 14974 ft 372 kts 328°
2026-04-28 19:24 42.81532 5.22114 14606 ft 386 kts 328°
2026-04-28 19:24 42.83809 5.20303 14200 ft 368 kts 328°
2026-04-28 19:25 42.85974 5.18585 13665 ft 363 kts 328°
2026-04-28 19:25 42.88278 5.16743 13139 ft 400 kts 328°
2026-04-28 19:25 42.90709 5.14790 12638 ft 409 kts 328°
2026-04-28 19:25 42.93177 5.12850 12119 ft 409 kts 331°
2026-04-28 19:26 42.95806 5.11377 11608 ft 408 kts 342°
2026-04-28 19:26 42.98520 5.10408 11294 ft 394 kts 345°
2026-04-28 19:26 43.01115 5.09516 11167 ft 375 kts 345°
2026-04-28 19:26 43.03583 5.08661 11047 ft 357 kts 345°
2026-04-28 19:27 43.05938 5.07843 10924 ft 341 kts 345°
2026-04-28 19:27 43.08191 5.07059 10805 ft 327 kts 345°
2026-04-28 19:27 43.10359 5.06303 10683 ft 315 kts 345°
2026-04-28 19:27 43.12442 5.05574 10525 ft 305 kts 344°
2026-04-28 19:28 43.14477 5.04861 10385 ft 301 kts 345°
2026-04-28 19:28 43.16498 5.04151 10260 ft 299 kts 345°
2026-04-28 19:28 43.18512 5.03444 10128 ft 298 kts 345°
2026-04-28 19:28 43.20533 5.02788 9984 ft 298 kts 350°
2026-04-28 19:29 43.22600 5.02566 9686 ft 298 kts 356°
2026-04-28 19:29 43.23971 5.02470 9506 ft 297 kts 356°
2026-04-28 19:29 43.26696 5.02272 9159 ft 294 kts 357°
2026-04-28 19:29 43.28740 5.02119 8900 ft 293 kts 357°
2026-04-28 19:30 43.30781 5.01965 8638 ft 293 kts 357°
2026-04-28 19:30 43.32818 5.01813 8307 ft 293 kts 357°
2026-04-28 19:30 43.34853 5.01834 7838 ft 293 kts
2026-04-28 19:30 43.36891 5.01938 7363 ft 294 kts
2026-04-28 19:31 43.38937 5.02040 6875 ft 295 kts
2026-04-28 19:31 43.40995 5.02118 6384 ft 297 kts 359°
2026-04-28 19:31 43.43031 5.01614 5882 ft 300 kts 341°
2026-04-28 19:31 43.44886 5.00287 5381 ft 304 kts 323°
2026-04-28 19:32 43.46459 4.98325 4888 ft 306 kts 316°
2026-04-28 19:32 43.47969 4.96304 4371 ft 296 kts 316°
2026-04-28 19:32 43.49419 4.94369 3862 ft 284 kts 316°
2026-04-28 19:32 43.50791 4.92539 3637 ft 264 kts 315°
2026-04-28 19:33 43.52116 4.90938 3480 ft 243 kts 331°
2026-04-28 19:33 43.53768 4.90306 3343 ft 263 kts
2026-04-28 19:33 43.55534 4.90891 3191 ft 257 kts 30°
2026-04-28 19:33 43.56910 4.92337 3039 ft 248 kts 54°
2026-04-28 19:34 43.57613 4.94480 2894 ft 266 kts 84°
2026-04-28 19:34 43.57653 4.97100 2725 ft 274 kts 99°
2026-04-28 19:34 43.57347 4.99640 2571 ft 257 kts 102°
2026-04-28 19:34 43.56925 5.01981 2419 ft 246 kts 115°
2026-04-28 19:35 43.56012 5.03871 2265 ft 231 kts 134°
2026-04-28 19:35 43.54919 5.05428 2113 ft 221 kts 134°
2026-04-28 19:35 43.53867 5.06935 1966 ft 216 kts 134°
2026-04-28 19:35 43.52848 5.08396 1814 ft 206 kts 134°
2026-04-28 19:36 43.51910 5.09738 1659 ft 190 kts 134°
2026-04-28 19:36 43.51015 5.11018 1507 ft 182 kts 134°
2026-04-28 19:36 43.50178 5.12214 1399 ft 164 kts 134°
2026-04-28 19:36 43.49446 5.13260 1312 ft 142 kts 134°
2026-04-28 19:37 43.48788 5.14201 1158 ft 133 kts 134°
2026-04-28 19:37 43.48359 5.14812 1053 ft 130 kts 134°
2026-04-28 19:37 43.47527 5.15998 838 ft 129 kts 135°
2026-04-28 19:37 43.46900 5.16886 677 ft 130 kts 135°
2026-04-28 19:38 43.46278 5.17803 467 ft 131 kts 136°
2026-04-28 19:38 43.45633 5.18710 309 ft 134 kts 136°
2026-04-28 19:38 43.44977 5.19650 146 ft 134 kts 136°
2026-04-28 19:38 43.44332 5.20568 40 ft 124 kts 135°
2026-04-28 19:39 43.43844 5.21260 36 ft 68 kts 134°
2026-04-28 19:39 43.43564 5.21659 35 ft 54 kts 134°
2026-04-28 19:39 43.43409 5.21881 35 ft 16 kts 131°
2026-04-28 19:39 43.43344 5.22015 36 ft 17 kts 112°
2026-04-28 19:40 43.43334 5.22179 37 ft 17 kts 86°
2026-04-28 19:40 43.43404 5.22283 37 ft 16 kts
2026-04-28 19:40 43.43496 5.22224 37 ft 14 kts 329°
2026-04-28 19:40 43.43577 5.22158 37 ft 13 kts 329°
2026-04-28 19:41 43.43608 5.22133 37 ft 3 kts 330°
2026-04-28 19:41 43.43672 5.22120 37 ft 12 kts 23°
2026-04-28 19:41 43.43731 5.22193 37 ft 11 kts 52°
2026-04-28 19:41 43.43755 5.22286 37 ft 10 kts 78°
2026-04-28 19:42 43.43767 5.22345 37 ft 3 kts
2026-04-28 19:42 43.43786 5.22351 37 ft 2 kts 17°
2026-04-28 19:42 43.43799 5.22354 37 ft 2 kts
2026-04-28 19:42 43.43806 5.22354 37 ft 1 kts
2026-04-28 19:43 43.43811 5.22355 37 ft 0 kts